{"data":{"norad_id":68928,"intl_designator":"2026-098K","name":"KUIPER-00413","alt_names":[],"object_type":"PAYLOAD","status":"ACTIVE","operator":null,"country":"US","launch_date":"2026-04-30","launch_site_code":"FRGUI","launch_vehicle":null,"mission":null,"orbit_class":"UNKNOWN","rcs_meters":null,"size_class":null,"mass_kg":null,"dimensions":null,"purposes":[],"wikipedia_slug":null,"has_3d_model":false,"image_url":null,"decayed_at":null,"tle_current":{"epoch":"2026-09-19T23:30:40.597920Z","epoch_age_seconds":60428,"freshness":"FRESH","line1":"1 68928U 26098K   26262.97963655  .00000842  00000+0  13938-3 0  9996","line2":"2 68928  51.9013   1.4805 0000438 185.2426 174.8531 14.79929726 21485","mean_motion":14.79929726,"eccentricity":4.38e-5,"inclination_deg":51.9013,"raan_deg":1.4805,"arg_perigee_deg":185.2426,"mean_anomaly_deg":174.8531,"bstar":0.00013938,"rev_number":2148,"period_min":97.301917429017,"perigee_km":629.23902788691,"apogee_km":629.85290091459,"semimajor_km":7007.6829644007,"source":"CELESTRAK","updated_at":"2026-09-20T09:00:24.555166Z"}}}